Station MXXA2 - MXAK Office, AK Image indicating link to RSS feed of recent meteorological observations for station MXXA2


Conditions at MXXA2 as of
(9:32 am AKDT)
1732 GMT on 05/25/2024:
     

Click on the graph icon in the table below to see a time series plot of the last five days of that observation.

5-day plot - Wind Direction Wind Direction (WDIR): E ( 100 deg true )
5-day plot - Wind Speed Wind Speed (WSPD): 7 kts
5-day plot - Wind Gust Wind Gust (GST): 11 kts
5-day plot - Air Temperature Air Temperature (ATMP): 45.0 °F
5-day plot - Dew Point Dew Point (DEWP): 43.0 °F
5-day plot - Wind Chill Wind Chill (CHILL): 40.6 °F
5-day plot - Wind Speed at 10 Meters Wind Speed at 10 meters (WSPD10M): 8 kts
5-day plot - Wind Speed at 20 Meters Wind Speed at 20 meters (WSPD20M): 8 kts
5-day plot -  Wind Speed, Wind Gust and Atmospheric Pressure Combined plot of Wind Speed, Gust, and Air Pressure
Previous observations
TIME
(AKDT)
5-day plot - Wind Direction
WDIR
 
5-day plot - Wind Speed
WSPD
kts
5-day plot - Wind Gust
GST
kts
5-day plot - Wave Height
WVHT
ft
5-day plot - Dominant Wave Period
DPD
sec
5-day plot - Average Wave Period
APD
sec
5-day plot - Mean Wave Direction
MWD
 
5-day plot - Atmospheric Pressure
PRES
in
5-day plot - Pressure Tendency
PTDY
in
5-day plot - Air Temperature
ATMP
°F
5-day plot - Water Temperature
WTMP
°F
5-day plot - Dew Point
DEWP
°F
5-day plot - Salinity
SAL
psu
5-day plot - Visibility
VIS
nmi
5-day plot - Tide (above MLLW)
TIDE
ft
2024-05-25 09:22 am E 7 12------ 45.1- 42.8---
2024-05-25 09:12 am E 7 11------ 45.1- 43.0---
2024-05-25 09:02 amESE 8 13------ 45.1- 42.8---
2024-05-25 08:52 amESE 9 12------ 45.3- 42.8---
2024-05-25 08:42 am E 8 12------ 45.5- 42.8---
2024-05-25 08:32 am E 8 12------ 45.7- 43.0---
2024-05-25 08:23 am E 8 14------ 45.7- 43.2---
2024-05-25 08:12 am E 7 11------ 45.9- 43.2---
2024-05-25 08:02 amESE 8 11------ 45.9- 43.0---
2024-05-25 07:52 amESE 8 12------ 45.9- 42.6---
2024-05-25 07:42 amESE 8 11------ 45.7- 43.3---
2024-05-25 07:32 am E 8 11------ 45.7- 43.2---
2024-05-25 07:22 amESE 7 11------ 45.5- 43.2---
2024-05-25 07:12 amESE 6 10------ 45.5- 43.2---
2024-05-25 07:02 am E 6 9------ 45.5- 43.3---
2024-05-25 06:52 am E 6 9------ 45.3- 43.2---
2024-05-25 06:42 am E 5 8------ 45.1- 43.2---
2024-05-25 06:32 am E 6 9------ 45.3- 43.2---
2024-05-25 06:22 am E 5 9------ 45.3- 43.0---
2024-05-25 06:12 am E 6 10------ 45.1- 43.3---
2024-05-25 06:02 am E 6 8------ 45.3- 43.2---
2024-05-25 05:52 am E 6 10------ 45.5- 42.8---
2024-05-25 05:42 am E 6 9------ 45.5- 43.0---
2024-05-25 05:32 am E 6 10------ 45.3- 43.5---
2024-05-25 05:22 am E 5 8------ 45.5- 43.5---
2024-05-25 05:12 am E 5 7------ 45.3- 43.3---
2024-05-25 05:02 am E 5 7------ 45.3- 43.2---
2024-05-25 04:52 am E 5 7------ 45.3- 43.0---
2024-05-25 04:42 am E 5 7------ 45.3- 42.8---
2024-05-25 04:32 am E 4 6------ 45.1- 43.0---
2024-05-25 04:22 am E 4 6------ 44.8- 43.3---
2024-05-25 04:12 amESE 5 6------ 44.6- 43.3---
2024-05-25 04:02 amESE 5 6------ 44.6- 43.3---
2024-05-25 03:52 amESE 4 5------ 44.6- 43.5---
2024-05-25 03:42 am E 4 5------ 44.4- 43.5---
2024-05-25 03:32 amSSE 4 6------ 44.2- 43.2---
2024-05-25 03:22 amESE 4 5------ 44.6- 43.5---
2024-05-25 03:12 am E 4 6------ 44.6- 43.5---
2024-05-25 03:02 amESE 3 5------ 44.6- 43.5---
2024-05-25 02:52 am SE 3 4------ 44.6- 43.3---
2024-05-25 02:42 amESE 2 4------ 44.4- 43.2---
2024-05-25 02:33 amESE 2 3------ 44.6- 43.3---
2024-05-25 02:22 am E 2 2------ 44.6- 43.3---
2024-05-25 02:12 am SE 2 3------ 44.8- 43.7---
2024-05-25 02:02 am SE 2 4------ 44.8- 43.7---
2024-05-25 01:52 amESE 3 5------ 44.8- 43.5---
2024-05-25 01:42 am SE 3 5------ 45.0- 43.9---
2024-05-25 01:32 am E 3 5------ 45.0- 43.9---
2024-05-25 01:22 amSSE 3 5------ 45.0- 43.9---
2024-05-25 01:12 am E 2 5------ 45.1- 43.5---
2024-05-25 01:02 am E 2 3------ 45.1- 43.9---
2024-05-25 12:42 amENE 1 2------ 45.5- 44.2---
2024-05-25 12:32 amENE 1 2------ 45.3- 44.1---
2024-05-25 12:22 am E 1 3------ 45.5- 44.2---
2024-05-25 12:13 am- 0 2------ 45.5- 44.4---
2024-05-25 12:02 am- 0 3------ 45.5- 44.2---
2024-05-24 11:52 pm- 0 2------ 45.5- 44.2---
2024-05-24 11:42 pm N 2 4------ 45.5- 44.1---
2024-05-24 11:32 pmSSW 2 4------ 45.7- 44.2---
2024-05-24 11:22 pm N 1 3------ 46.0- 44.2---
2024-05-24 11:12 pmNNW 2 3------ 45.9- 44.1---
2024-05-24 11:02 pmWSW 2 4------ 46.0- 44.1---
2024-05-24 10:52 pm W 1 3------ 46.6- 44.2---
2024-05-24 10:42 pm W 1 2------ 46.4- 43.7---
2024-05-24 10:32 pmWNW 1 2------ 46.6- 43.9---
2024-05-24 10:22 pmWSW 1 3------ 46.6- 44.1---
2024-05-24 10:13 pm W 2 3------ 47.1- 44.2---
2024-05-24 10:02 pm W 2 4------ 47.5- 44.1---
2024-05-24 09:52 pm W 2 4------ 48.4- 44.1---
2024-05-24 09:42 pmSSE 1 2------ 48.9- 44.1---
2024-05-24 09:32 pm NE 2 4------ 49.1- 43.3---
2024-05-24 09:22 pmENE 2 4------ 49.5- 43.2---
2024-05-24 09:12 pm E 2 4------ 49.6- 42.8---
2024-05-24 09:02 pm E 3 5------ 49.5- 42.8---
2024-05-24 08:52 pm E 4 5------ 49.8- 42.8---
2024-05-24 08:42 pm E 4 6------ 50.0- 41.9---
2024-05-24 08:32 pmESE 3 4------ 50.5- 42.1---
2024-05-24 08:22 pmESE 3 5------ 50.4- 41.7---
2024-05-24 08:12 pm SE 3 5------ 50.4- 42.1---
2024-05-24 08:02 pmESE 3 5------ 50.9- 40.5---
2024-05-24 07:52 pm E 4 7------ 50.7- 40.5---
2024-05-24 07:42 pm E 4 6------ 50.5- 42.3---
2024-05-24 07:32 pmESE 5 8------ 50.2- 41.5---
2024-05-24 07:22 pmESE 5 8------ 50.9- 41.4---
2024-05-24 07:12 pmESE 5 7------ 51.3- 40.5---
2024-05-24 07:02 pmESE 4 7------ 51.3- 41.2---
2024-05-24 06:52 pm E 4 6------ 51.3- 40.8---
2024-05-24 06:42 pmESE 4 7------ 51.3- 41.0---
2024-05-24 06:32 pmESE 5 7------ 51.1- 41.0---
2024-05-24 06:22 pmESE 5 7------ 51.3- 41.2---
2024-05-24 06:12 pmESE 4 7------ 52.0- 41.4---
2024-05-24 06:02 pmSSE 4 7------ 52.5- 41.2---
2024-05-24 05:52 pm SE 3 6------ 52.3- 41.0---
2024-05-24 05:42 pmESE 4 7------ 51.3- 41.0---
2024-05-24 05:32 pm SE 4 6------ 51.3- 40.6---
2024-05-24 05:22 pmESE 5 7------ 50.9- 40.8---
2024-05-24 05:12 pmESE 5 7------ 50.7- 41.0---
2024-05-24 05:02 pmESE 4 7------ 50.9- 40.5---
2024-05-24 04:52 pm SE 4 5------ 50.7- 40.3---
2024-05-24 04:42 pmESE 5 6------ 50.7- 40.3---
2024-05-24 04:32 pmESE 3 5------ 51.1- 41.2---
2024-05-24 04:22 pmESE 2 4------ 50.9- 40.5---
2024-05-24 04:12 pmESE 3 4------ 51.1- 39.6---
2024-05-24 03:52 pm SE 3 5------ 51.1- 39.4---
2024-05-24 03:42 pmESE 3 4------ 50.9- 39.2---
2024-05-24 03:32 pm SE 3 6------ 51.1- 39.2---
2024-05-24 03:22 pmSSW 2 5------ 51.6- 39.2---
2024-05-24 03:12 pmWSW 2 3------ 51.8- 39.2---
2024-05-24 03:02 pm W 2 4------ 51.3- 39.4---
2024-05-24 02:52 pm W 3 5------ 50.9- 39.6---
2024-05-24 02:42 pm W 3 5------ 50.9- 39.7---
2024-05-24 02:33 pm W 3 5------ 50.5- 40.1---
2024-05-24 02:22 pm W 3 5------ 50.4- 40.5---
2024-05-24 02:12 pm W 3 5------ 50.5- 40.6---
2024-05-24 02:03 pm W 3 6------ 50.2- 40.3---
2024-05-24 01:52 pm W 4 6------ 49.8- 39.9---
2024-05-24 01:42 pm W 4 7------ 49.8- 39.4---
2024-05-24 01:32 pm W 4 7------ 49.6- 39.9---
2024-05-24 01:22 pm W 4 7------ 49.5- 41.0---
2024-05-24 01:12 pm W 5 8------ 48.9- 40.5---
2024-05-24 01:02 pm W 5 9------ 48.6- 41.2---
2024-05-24 12:52 pm W 6 9------ 48.4- 41.5---
2024-05-24 12:42 pm W 5 8------ 48.7- 41.7---
2024-05-24 12:32 pmWNW 5 10------ 48.6- 41.5---
2024-05-24 12:22 pmWNW 6 10------ 48.2- 41.9---
2024-05-24 12:12 pmWNW 6 12------ 48.2- 42.1---
2024-05-24 12:02 pmWNW 6 11------ 48.4- 42.3---
2024-05-24 11:52 amWNW 6 9------ 48.4- 42.6---
2024-05-24 11:42 amWNW 5 10------ 48.6- 41.5---
2024-05-24 11:32 amWNW 4 9------ 48.9- 41.0---
2024-05-24 11:22 amWSW 3 7------ 50.0- 39.9---
2024-05-24 11:12 amENE 2 5------ 49.8- 38.5---
2024-05-24 11:02 amESE 3 5------ 49.6- 38.8---
2024-05-24 10:52 am E 2 4------ 50.0- 40.5---
2024-05-24 10:42 amNNE 2 6------ 49.5- 40.5---
2024-05-24 10:32 amNNE 3 6------ 49.3- 40.5---
2024-05-24 10:22 amNNE 2 4------ 49.3- 41.0---
2024-05-24 10:12 amENE 2 4------ 49.5- 41.7---
2024-05-24 10:02 amNNE 1 3------ 49.3- 41.7---
2024-05-24 09:52 am W 1 3------ 48.7- 42.1---
2024-05-24 09:43 amWNW 2 4------ 48.4- 41.7---
2024-05-24 09:32 am W 3 5------ 47.7- 41.9---
2024-05-24 09:22 am W 2 4------ 47.8- 42.6---
2024-05-24 09:12 am W 2 4------ 47.7- 42.6---
2024-05-24 09:02 am W 1 3------ 47.5- 42.6---
2024-05-24 08:52 am W 2 3------ 47.3- 43.2---